TITAN 34B R/B, 12446

Orbit data source: Space-Track

TITAN 34B R/B, 12446 is space debris in HEO originally from a launch on Fri, 24 Apr 1981 UTC launched from the Air Force Western Test Range (AFWTR). Debris objects in space refer to the collection of defunct objects orbiting the Earth. Examples of debris include non-operational satellites, rocket bodies, and fragments generated from explosions, collisions, or faulty payload assembly.

Loading next visibility...
Identifier
12446, 1981-038B
Orbit
HEO
Country
Flag of USUS
Related business
Manufacturer
LMSC
Mission
Spacecraft
Bus & Motor
AGENA D, Unknown motor
Mass
600 kg wet, 600 kg dry
Launch date (UTC)
1981-04-24 (44 years ago)
Launch vehicle
Unknown
Launch site
Air Force Western Test Range (AFWTR)
Object type
Payload
Rocket body
Debris
Shape & HBR
Cyl, 3.1 m
Radar Cross Section
8.306 m², Large (>1 m²)

Expand to show TLE details & history
Last TLE update: 2 days ago

TLE from 2 days ago
0 TITAN 34B R/B
1 12446U 81038B   25259.41385331  .00007739  00000-0  14180-2 0  9990
2 12446  63.1398  41.8990 5610367 288.0877  20.5837  4.63756094 83222
Epoch: 2025-09-16T09:55Z
TLE epoch observation values (Epoch: 2025-09-16T09:55:56.925Z)
Latitude
0.00008°
Longitude
-102.70733°
Altitude
2,490.785 km
Speed
7.979 km/s
True Right ascension
02h 47m 32s
True Declination
0° 00' 00"
Sunlit
Object was in daylight at epoch
Visualization orbit readout
Latitude
Unknown
Longitude
Unknown
Altitude
Unknown
Speed
Unknown
Apparent Right ascension
Unknown
Apparent Declination
Unknown
Sunlit
N/A
Visualization observer readout
Local Sidereal Time
23:54:55
Azimuth
Unknown
Elevation
Unknown
Doppler factor
Unknown
Orbital elements
Apogee altitude
17,331.622 km
Perigee altitude
289.044 km
Semi-major axis
15,188.47 km
Eccentricity
0.56104
Inclination
63.1398°
RAAN
41.899°
Arg. of periapsis
288.0877°
True anomaly
72.02633°
Mean anomaly
20.5837°
Eccentric anomaly
42.15923°
Mean motion
1.1595 °/min
Orbital period
310.48 mins
BSTAR
0.001418
Loading maneuver chart data...
Computing Atmospheric mass density...
Loading historical data...
Loading historical data...
Loading historical data...
Loading historical data...
Loading historical data...
Loading historical data...
Loading historical data...

Documentation

Showing up to 5 results
|